Dewpoint
3 3 4 5 6 7 8 7 3 3 5 6 5 5 6 3 1 3 1 0 1 0 -0 -1 -2 -2 -1 6 6 4 3 3 6 8 9 9 8 6 6 5 5 6 6 6 6 7 7
2 3 2 3 3 5 7 7 7 2 4 5 5 5 5 4 3 0 4 1 3 2 0 1 -1 2 3 3 -3 4 4 4 4 8 8 8 8 7 7 5 5 5 5 5 5 6 6
1 1 1 2 3 3 5 6 7 7 3 4 5 5 5 5 4 1 4 2 4 3 2 -0 1 2 4 1 1 -1 5 4 4 4 3 5 5 7 7 7 6 5 6 5 5 5 6
1 1 1 2 1 2 2 4 5 7 6 3 4 4 4 5 5 1 -1 2 4 6 4 2 1 1 1 0 0 3 2 4 4 4 4 3 6 5 4 4 5 6 6 8 4 5 5
-0 -0 -0 1 1 2 2 2 4 5 6 5 5 4 4 5 5 1 -0 2 3 4 4 3 2 2 2 1 0 1 2 3 3 4 5 4 3 2 2 6 7 7 7 7 5 4 6
-1 -1 -2 -1 0 1 1 1 2 4 6 6 4 5 5 4 5 2 -1 4 3 3 3 5 4 3 2 1 1 0 0 3 2 2 2 2 2 4 4 6 6 6 7 6 6 5 5
-2 -2 -1 -3 -2 1 1 1 2 2 4 6 5 5 6 5 4 3 1 5 3 3 5 5 4 4 1 2 2 2 1 2 3 2 3 1 5 6 4 3 4 5 6 6 4 3 4
-1 -1 -2 -0 -2 -0 1 1 1 2 2 4 6 5 6 5 6 4 1 4 2 3 4 4 5 4 3 3 3 2 2 3 3 4 2 4 4 2 1 2 3 4 5 5 4 3 4
-2 -2 -1 -2 -2 -1 0 1 1 2 1 1 4 5 5 5 6 5 3 2 3 3 2 2 3 5 5 3 3 3 3 3 3 4 4 4 2 1 2 3 4 4 5 4 4 2 2
-2 -2 -2 -2 -2 -1 -1 0 1 1 -0 1 3 5 6 6 5 5 4 2 3 3 -1 1 4 4 4 4 4 3 3 2 3 4 4 4 1 1 2 3 3 4 3 4 4 5 5
-1 -2 -1 -2 -2 -1 -0 0 0 0 0 3 2 5 6 6 5 5 3 1 4 3 -2 0 3 4 5 4 3 3 3 2 3 4 3 4 4 2 3 3 2 3 2 3 4 6 5
-1 -2 -2 -2 -2 -1 -1 -0 -0 0 -1 0 1 4 6 6 5 3 3 1 3 -1 -1 4 3 3 4 4 4 3 3 3 4 4 3 2 1 2 2 1 1 2 3 4 4 5 6
-1 -2 -2 -3 -2 -2 -1 -1 -0 1 0 -0 1 3 5 5 4 1 1 3 2 -1 -0 4 3 3 3 3 3 4 4 5 6 6 5 5 5 2 2 3 1 1 4 6 7 7 5
-1 -2 -2 -2 -2 -1 -1 -1 -0 1 1 2 0 2 3 5 4 0 2 2 1 -1 2 1 2 4 4 3 3 4 4 4 3 4 5 5 5 5 3 3 4 3 3 5 5 5 4
-2 -2 -2 -2 -3 -2 -2 -2 -0 1 2 2 1 2 2 5 3 2 2 3 0 -1 2 3 3 4 4 3 3 4 3 2 2 2 4 4 4 2 2 1 2 5 6 2 3 3 7
-3 -2 -2 -2 -2 -2 -2 0 0 0 2 2 2 1 3 5 1 3 3 1 -0 2 3 2 3 3 3 2 3 3 3 2 2 1 1 2 3 1 2 1 1 2 1 5 6 6 5
-2 -3 -2 -2 -2 -3 -2 -0 -0 0 1 1 2 1 4 3 3 3 4 1 1 3 3 3 3 4 3 3 3 2 1 1 2 2 1 2 2 2 2 4 3 4 4 3 3 3 4
-2 -3 -2 -2 -3 -3 -2 -0 -0 1 1 2 1 2 3 4 4 4 4 2 1 4 3 3 3 2 4 2 3 2 3 1 1 2 4 2 3 4 2 2 0 1 2 2 6 2 1
-2 -3 -4 -3 -3 -3 -2 -1 -1 0 1 1 3 2 4 4 4 4 3 3 2 3 3 3 4 3 3 3 3 2 1 -1 1 1 3 3 5 5 6 4 3 5 4 2 2 4 3
-3 -3 -4 -3 -3 -3 -2 -1 -0 -0 1 2 3 2 4 4 3 3 3 3 3 2 2 2 4 3 4 4 2 2 2 -1 -1 0 3 3 5 5 5 6 5 5 4 3 2 3 3
-4 -3 -4 -3 -3 -4 -2 -2 -1 0 1 2 2 3 2 3 4 2 2 3 3 5 3 3 4 5 5 4 4 4 2 1 1 1 4 4 5 5 5 5 5 6 4 3 3 2 3
-4 -3 -4 -3 -3 -4 -2 -1 -1 0 2 3 3 4 3 2 3 3 3 4 4 4 5 5 5 5 4 6 2 1 0 1 3 4 4 4 4 5 5 4 5 6 5 5 3 2 2
-3 -3 -4 -3 -3 -4 -3 -2 -1 0 0 0 2 5 3 3 3 4 5 4 4 4 4 3 4 5 5 4 3 3 2 2 2 4 5 4 5 6 8 7 7 7 6 6 4 3 4
-3 -3 -4 -3 -3 -3 -3 -1 -1 0 0 1 2 3 5 4 3 3 4 3 4 4 4 4 4 5 4 4 4 4 4 3 2 3 3 5 6 6 8 7 9 6 7 4 5 5 5
-3 -3 -3 -4 -3 -3 -3 -1 -1 -0 0 1 2 4 5 5 3 3 3 4 4 4 4 4 4 4 4 4 5 6 6 5 5 3 3 3 5 8 8 7 5 5 8 7 7 6 5
-3 -3 -4 -4 -3 -3 -4 -1 -1 -1 0 2 4 4 5 4 5 3 3 4 5 5 4 4 5 5 5 6 6 7 7 5 6 6 4 5 5 7 7 7 7 2 3 4 4 6 4
-3 -3 -3 -5 -3 -4 -4 -2 -1 -1 0 1 3 4 4 4 4 4 4 4 3 3 4 4 4 5 5 6 7 7 6 5 7 5 5 7 7 7 5 7 5 2 -0 -0 6 3 -0
-3 -3 -3 -4 -4 -4 -3 -3 -1 -1 0 1 3 4 5 4 4 4 3 4 4 3 4 4 5 5 6 7 7 7 5 5 5 4 6 6 6 6 6 7 5 0 -1 0 -1 1 1
-3 -4 -4 -3 -5 -3 -3 -3 -2 -2 -0 0 2 4 5 4 4 4 3 3 3 3 3 4 4 5 5 6 5 5 7 5 4 6 4 6 5 6 4 4 1 1 1 1 0 1 1
Wind_Speed
22 22 25 23 18 19 16 22 21 21 22 21 20 20 19 17 15 14 11 9 8 7 6 6 8 11 13 11 14 3 4 3 8 21 20 13 7 2 3 3 6 5 3 10 16 19 22
26 27 26 26 26 23 18 19 23 22 22 24 21 21 20 17 16 14 13 11 9 7 6 5 7 10 11 4 10 12 9 9 7 12 15 16 7 11 6 5 4 4 7 10 10 15 17
27 27 28 29 28 25 24 20 22 21 23 22 23 22 21 15 17 15 14 11 9 7 6 6 7 10 11 18 7 14 18 12 8 5 5 6 15 7 2 4 10 6 6 6 7 8 7
26 27 29 28 28 29 26 21 18 16 23 23 26 23 22 19 17 15 15 13 10 8 6 6 6 7 8 3 16 14 16 19 15 13 8 6 5 8 7 9 4 3 2 2 3 10 8
29 29 29 30 28 29 29 27 25 21 16 25 26 26 23 21 17 15 14 12 11 8 7 6 6 7 9 6 9 19 17 11 12 15 13 10 7 6 4 3 6 5 7 4 5 7 5
30 33 31 30 32 31 30 29 29 25 22 16 26 27 24 23 18 14 15 13 11 9 8 7 7 5 10 4 4 7 22 16 7 9 8 8 7 4 3 6 9 4 4 3 5 4 3
31 32 33 31 32 33 32 31 30 29 24 21 27 28 26 24 20 15 19 16 5 5 17 11 8 6 2 4 5 4 13 18 11 5 5 3 5 9 12 10 7 5 5 5 4 7 6
31 31 32 32 32 35 34 32 29 30 28 23 24 28 27 25 23 22 22 19 9 3 4 29 14 21 7 6 2 6 13 13 8 6 5 1 11 7 5 6 9 11 13 16 7 9 9
30 30 33 32 32 33 33 31 30 29 27 30 19 32 29 28 25 25 26 26 8 4 2 7 23 21 18 16 8 10 16 13 5 8 7 12 4 9 10 10 10 10 12 10 13 9 13
30 31 34 34 33 34 36 31 29 27 28 25 24 24 31 30 29 29 25 22 18 3 3 5 6 5 11 11 6 25 20 10 5 11 11 12 16 15 10 13 10 19 9 13 12 5 6
31 32 35 35 32 35 35 37 27 29 26 18 24 14 31 39 28 31 25 19 15 5 2 3 4 5 7 11 4 5 21 17 12 9 6 6 5 13 19 15 12 10 7 10 10 7 7
34 33 34 35 32 33 37 37 34 30 24 26 28 16 26 39 29 26 23 22 15 5 6 6 5 6 5 5 1 3 8 16 3 8 14 10 5 6 7 11 16 1 9 7 7 8 14
34 35 32 33 32 32 38 39 42 30 26 20 18 20 29 37 34 27 29 30 4 4 1 6 6 6 5 6 5 6 5 10 5 6 8 4 15 3 4 5 9 12 5 3 4 7 8
31 32 33 32 31 33 34 41 44 26 17 12 16 25 14 41 32 36 43 4 4 5 5 2 5 5 5 8 5 9 6 10 13 6 2 8 6 14 8 8 6 16 15 5 6 4 4
31 30 31 32 31 32 35 39 42 31 12 10 18 15 18 34 33 45 32 3 8 6 6 10 7 5 7 7 4 7 11 11 8 16 10 3 5 3 7 15 6 5 11 19 8 8 4
33 30 29 31 31 30 32 36 37 28 12 9 5 10 16 39 39 45 9 5 4 3 6 6 7 9 7 8 9 8 6 4 7 11 10 5 4 6 8 5 10 17 7 4 6 5 7
33 31 28 29 31 30 31 34 39 32 23 13 7 3 17 36 46 27 5 5 4 6 8 6 6 7 7 5 8 7 5 5 9 9 16 6 5 2 3 11 14 7 13 7 4 5 4
31 31 27 29 30 29 29 32 36 35 24 7 8 2 33 47 8 5 5 6 6 5 4 2 2 8 8 8 7 6 9 7 15 10 11 11 4 6 14 3 14 13 14 17 4 5 7
31 30 27 26 29 29 27 31 33 37 18 20 10 7 43 43 5 6 5 3 4 4 6 5 7 9 10 8 4 8 5 8 18 13 12 9 4 5 3 6 12 8 11 17 16 3 9
31 30 26 25 27 29 28 29 31 37 21 15 9 2 13 23 6 11 7 6 6 8 5 10 4 10 7 7 7 3 5 4 18 12 14 13 5 8 9 3 3 7 16 21 19 10 14
30 29 26 23 25 26 27 30 31 35 22 4 6 4 8 7 4 12 8 7 10 6 8 11 5 9 6 6 6 9 8 10 4 11 10 8 7 10 17 18 14 6 15 22 24 24 15
30 29 26 23 21 25 25 26 28 33 17 3 6 5 8 12 12 12 13 8 12 11 7 6 9 7 14 8 7 4 4 4 4 5 9 4 4 3 15 23 26 15 17 19 23 20 22
28 27 25 24 23 25 25 26 28 32 22 7 9 4 8 15 13 9 8 8 13 7 11 13 10 11 10 13 23 29 17 14 7 9 10 5 3 3 5 3 7 6 21 23 22 19 17
29 26 24 22 23 23 21 24 25 27 13 19 15 7 4 6 11 14 9 10 6 8 7 6 14 8 2 7 10 11 16 13 8 10 11 7 4 4 3 3 1 5 5 15 18 13 11
28 26 25 22 23 22 23 25 26 27 17 20 9 4 2 4 9 11 11 5 11 18 16 14 13 17 10 6 2 4 1 3 6 7 13 8 3 4 3 3 3 6 8 9 9 10 14
27 25 25 23 23 20 22 24 24 27 21 21 2 9 6 4 7 9 11 6 3 3 1 6 7 15 10 2 3 4 4 3 4 4 5 4 5 2 3 3 4 2 7 16 10 4 20
27 25 23 23 22 21 21 22 24 26 22 21 10 4 1 4 4 14 3 5 6 3 1 1 1 3 16 6 4 4 3 0 3 3 2 2 2 2 2 2 6 3 2 14 6 5 4
26 24 22 22 21 22 21 21 22 24 21 23 7 15 4 3 8 12 10 9 6 6 3 4 2 4 3 5 4 3 4 5 2 2 4 5 3 3 2 1 3 2 1 4 2 1 4
25 24 21 21 22 22 21 21 21 22 21 18 9 10 9 3 4 13 13 15 15 9 7 9 3 2 4 2 2 2 3 2 3 2 1 3 4 3 6 5 3 4 2 3 3 2 3
Wind_Direction
334 324 311 309 304 321 310 286 277 270 263 259 266 271 279 281 264 250 251 242 245 246 247 230 215 209 205 214 232 206 142 165 188 201 213 224 217 193 223 245 261 228 253 276 277 272 276
351 346 336 328 328 291 291 329 274 268 263 255 257 262 271 281 262 249 244 240 242 240 238 232 209 207 209 228 251 200 162 138 140 184 213 224 223 237 282 256 217 278 286 279 285 277 274
348 342 339 338 338 313 294 313 313 274 262 259 246 255 259 269 262 254 235 233 235 230 228 229 221 218 227 240 226 217 207 184 162 191 197 229 232 211 325 281 281 283 297 291 241 249 251
345 342 339 338 331 331 312 297 316 302 269 256 243 247 249 259 260 249 231 225 236 228 232 225 231 244 247 256 217 199 210 225 225 207 225 241 223 230 249 286 296 296 262 283 251 199 229
345 340 338 333 330 327 325 311 297 300 298 254 240 245 243 247 251 241 219 227 231 225 228 228 231 246 267 228 232 210 211 213 210 217 232 246 230 229 245 245 279 196 258 214 321 222 226
344 341 334 328 327 327 322 318 313 294 284 269 241 238 236 242 235 232 208 218 224 220 204 214 215 255 249 231 205 211 215 204 172 194 211 219 188 194 173 199 233 245 256 248 220 205 278
340 337 335 332 324 325 323 320 313 306 286 303 237 233 232 232 229 221 195 193 181 223 204 200 211 224 217 193 191 195 192 189 192 163 176 202 202 206 208 221 251 298 281 283 313 298 335
337 336 333 328 322 323 323 319 312 313 283 276 246 227 227 227 219 203 203 194 196 132 234 227 218 226 155 140 212 189 183 173 179 192 137 289 244 223 220 210 239 249 260 264 282 268 280
337 335 331 331 323 324 321 318 314 312 301 276 289 224 224 222 211 200 204 209 216 235 281 259 229 234 234 241 231 220 191 192 179 198 189 219 206 204 228 247 238 239 241 252 256 289 279
338 336 334 334 323 326 322 323 314 308 305 291 263 235 220 209 192 196 200 205 209 230 36 237 197 225 197 198 255 221 205 173 194 206 215 245 240 239 260 236 218 253 212 232 247 246 252
333 335 333 333 326 325 330 329 321 311 300 290 264 262 215 202 183 189 202 188 187 174 2 156 157 162 174 174 136 189 207 203 220 188 163 222 205 216 228 231 201 246 221 226 228 234 273
331 330 331 334 329 328 328 328 327 314 289 285 263 276 236 189 191 200 190 167 157 58 252 175 136 168 156 210 204 117 180 207 161 225 219 231 193 192 218 232 217 215 229 261 241 230 248
328 329 334 333 329 330 328 329 328 326 302 262 261 256 202 196 182 176 160 146 97 169 152 176 179 172 188 181 204 192 172 200 207 198 221 217 233 235 254 189 189 201 230 233 222 210 239
328 331 333 332 334 332 331 327 334 331 306 268 260 258 274 198 181 162 157 116 145 187 183 173 130 142 189 167 208 202 223 226 223 217 249 219 232 197 202 213 172 191 200 213 211 223 231
329 329 331 333 337 333 333 332 341 345 316 297 258 290 286 178 176 165 152 164 199 192 155 151 144 181 202 203 199 201 225 234 207 197 220 200 257 168 223 212 180 171 212 217 258 277 268
332 328 330 335 336 333 333 335 346 348 332 338 246 267 243 176 167 163 161 198 210 175 123 152 180 196 196 193 190 192 200 227 217 187 184 224 264 202 206 154 207 217 150 190 199 212 246
333 333 333 334 335 335 336 341 345 346 346 316 151 302 189 167 167 166 186 203 193 179 136 164 199 185 215 179 199 187 224 256 201 191 181 192 180 283 106 206 193 192 228 219 256 197 217
333 334 333 333 336 337 338 340 345 344 344 90 129 219 174 168 158 179 163 167 195 156 150 176 219 230 198 187 188 215 218 224 182 144 185 209 226 233 224 205 219 207 206 207 216 228 235
334 336 334 335 339 337 339 341 348 346 1 357 170 195 167 167 161 168 149 141 175 140 170 208 217 212 200 201 210 203 195 227 174 166 177 164 228 259 237 217 217 210 219 215 223 306 218
336 338 337 337 340 337 338 343 350 344 335 343 146 141 148 186 163 163 157 189 190 207 216 210 263 209 192 227 225 265 239 253 184 184 141 160 233 223 234 219 171 201 208 202 206 229 238
338 339 339 340 341 338 339 345 353 341 345 153 144 179 166 175 206 168 178 175 191 191 209 215 231 233 221 221 224 233 242 261 184 183 166 191 250 238 251 252 234 227 217 198 207 216 218
340 339 339 340 343 337 336 342 351 346 27 100 197 160 169 159 157 163 183 203 198 199 206 204 229 218 218 234 213 216 166 190 196 170 186 193 265 255 282 263 235 219 219 214 210 219 237
339 339 340 339 344 341 340 345 354 352 7 323 344 122 145 163 175 177 188 189 209 161 211 233 214 234 252 232 236 251 264 269 206 188 192 204 249 270 263 59 123 220 224 211 200 213 219
340 339 341 340 342 339 339 340 347 347 340 342 336 317 175 163 185 198 168 198 198 224 228 236 226 221 222 325 282 264 249 248 227 211 179 188 206 215 288 307 347 262 211 190 191 191 210
339 339 340 338 341 339 339 340 348 344 339 345 350 274 228 138 180 179 200 190 221 241 244 243 223 224 239 298 270 280 164 316 244 210 203 221 272 300 322 289 258 63 138 172 167 237 232
338 339 338 338 339 339 340 340 347 341 343 359 222 202 247 127 193 155 184 175 187 210 285 209 228 232 224 244 211 233 228 198 282 305 164 190 216 228 346 339 25 31 152 171 173 277 201
336 337 335 335 337 338 341 339 347 339 345 350 201 264 60 107 153 155 161 175 181 145 197 154 273 257 221 196 209 224 238 350 200 213 236 227 206 229 293 311 292 263 119 124 148 260 142
334 334 334 334 334 337 340 336 346 338 348 360 296 195 214 176 171 198 197 163 155 176 171 159 211 215 183 195 184 209 217 222 208 225 180 179 164 206 132 278 328 354 121 183 231 46 218
330 331 335 329 332 336 337 334 345 337 344 1 343 207 178 159 178 211 223 230 241 210 212 188 215 242 248 143 187 216 200 150 171 251 131 231 191 188 176 217 264 317 306 358 338 143 165
Height
1493 1489 1487 1484 1482 1479 1476 1477 1476 1476 1476 1476 1475 1475 1475 1475 1475 1476 1476 1476 1476 1476 1476 1476 1476 1477 1478 1478 1474 1475 1475 1475 1475 1478 1481 1485 1487 1490 1492 1491 1488 1488 1485 1485 1485 1485 1484
1491 1487 1483 1479 1476 1474 1472 1470 1469 1470 1470 1470 1471 1471 1471 1472 1472 1473 1473 1474 1474 1474 1474 1475 1475 1475 1476 1477 1472 1474 1474 1476 1477 1479 1480 1484 1486 1488 1490 1489 1489 1485 1483 1483 1483 1481 1482
1491 1487 1483 1478 1473 1470 1467 1465 1463 1463 1463 1464 1465 1466 1467 1468 1468 1469 1470 1472 1473 1473 1473 1474 1474 1473 1473 1469 1469 1470 1473 1475 1477 1480 1481 1483 1484 1488 1487 1487 1485 1483 1483 1480 1479 1480 1479
1489 1485 1481 1475 1471 1466 1463 1460 1458 1454 1455 1457 1459 1461 1462 1464 1464 1465 1467 1469 1471 1472 1472 1473 1473 1473 1469 1466 1466 1468 1470 1473 1476 1479 1481 1482 1484 1487 1487 1486 1484 1484 1483 1484 1472 1472 1474
1486 1482 1478 1473 1467 1463 1459 1455 1452 1450 1448 1449 1452 1455 1457 1458 1460 1462 1464 1467 1468 1469 1471 1472 1473 1472 1466 1464 1464 1467 1469 1472 1475 1478 1480 1482 1483 1484 1485 1486 1486 1483 1483 1482 1477 1469 1469
1484 1479 1474 1470 1464 1459 1454 1450 1447 1444 1442 1440 1444 1447 1451 1453 1455 1458 1461 1464 1466 1467 1469 1472 1471 1475 1464 1463 1463 1464 1465 1471 1474 1475 1479 1480 1480 1481 1482 1485 1482 1483 1486 1480 1479 1468 1467
1481 1476 1471 1465 1461 1454 1449 1445 1441 1438 1435 1434 1435 1440 1445 1448 1450 1454 1458 1461 1467 1467 1464 1463 1463 1462 1460 1462 1462 1463 1463 1469 1472 1475 1478 1477 1479 1474 1476 1480 1481 1483 1483 1484 1478 1471 1471
1479 1474 1468 1462 1456 1449 1445 1440 1436 1432 1429 1428 1426 1432 1438 1441 1445 1448 1453 1455 1457 1460 1460 1458 1459 1461 1460 1460 1461 1462 1464 1468 1471 1474 1475 1478 1474 1473 1473 1477 1480 1481 1483 1480 1478 1473 1470
1476 1470 1463 1458 1452 1446 1440 1435 1430 1427 1423 1421 1422 1423 1430 1436 1440 1442 1446 1451 1456 1458 1459 1454 1452 1454 1457 1460 1459 1459 1462 1463 1467 1471 1472 1472 1465 1466 1471 1473 1477 1478 1481 1481 1479 1474 1469
1472 1466 1460 1454 1447 1441 1434 1428 1424 1420 1416 1414 1415 1414 1420 1428 1434 1436 1442 1450 1455 1459 1470 1452 1450 1449 1451 1456 1455 1454 1457 1461 1465 1466 1469 1465 1462 1465 1468 1469 1474 1472 1472 1473 1474 1478 1476
1469 1462 1456 1450 1443 1437 1430 1423 1418 1414 1411 1408 1405 1406 1413 1416 1421 1431 1436 1446 1454 1459 1483 1447 1447 1448 1449 1452 1450 1450 1454 1457 1458 1463 1467 1459 1461 1461 1462 1462 1465 1465 1466 1468 1468 1469 1469
1465 1458 1452 1446 1439 1433 1426 1419 1412 1406 1405 1403 1399 1397 1403 1406 1418 1426 1434 1443 1454 1470 1473 1443 1444 1446 1448 1448 1449 1450 1452 1456 1455 1458 1457 1455 1455 1456 1455 1455 1459 1460 1465 1465 1464 1467 1457
1461 1454 1448 1442 1435 1429 1422 1413 1405 1399 1396 1396 1397 1394 1398 1402 1411 1421 1431 1442 1459 1470 1436 1440 1439 1443 1445 1446 1447 1448 1451 1451 1451 1452 1454 1455 1451 1453 1452 1453 1454 1460 1466 1463 1459 1454 1442
1457 1451 1445 1438 1431 1425 1418 1409 1400 1394 1392 1392 1392 1393 1394 1396 1406 1415 1426 1438 1453 1430 1434 1431 1435 1442 1444 1444 1443 1445 1446 1447 1446 1450 1451 1448 1445 1445 1448 1444 1445 1450 1455 1455 1454 1453 1448
1453 1447 1441 1435 1428 1422 1414 1407 1398 1389 1387 1387 1390 1388 1390 1387 1402 1414 1422 1435 1430 1424 1424 1429 1435 1438 1440 1437 1440 1444 1440 1438 1436 1443 1448 1450 1444 1435 1437 1437 1442 1447 1447 1441 1443 1436 1439
1449 1442 1437 1431 1425 1419 1413 1405 1395 1388 1385 1385 1383 1388 1387 1389 1402 1412 1420 1423 1422 1417 1420 1424 1430 1429 1430 1434 1439 1442 1438 1431 1433 1433 1438 1440 1444 1430 1430 1434 1437 1437 1437 1446 1445 1442 1438
1445 1438 1433 1427 1422 1415 1409 1402 1395 1389 1382 1383 1384 1391 1385 1390 1402 1411 1412 1419 1417 1415 1417 1423 1425 1426 1429 1433 1435 1433 1432 1427 1423 1424 1431 1435 1443 1440 1435 1429 1425 1433 1434 1433 1433 1438 1442
1441 1435 1429 1424 1418 1412 1407 1400 1394 1388 1380 1378 1382 1392 1385 1391 1399 1404 1407 1411 1411 1414 1417 1420 1422 1421 1423 1428 1430 1434 1429 1421 1417 1424 1430 1430 1432 1429 1421 1416 1418 1417 1418 1428 1427 1438 1425
1438 1431 1425 1420 1415 1409 1404 1398 1391 1383 1380 1378 1381 1386 1384 1389 1393 1399 1407 1408 1410 1412 1414 1417 1418 1419 1418 1422 1426 1424 1420 1410 1414 1417 1419 1424 1425 1420 1412 1415 1417 1415 1415 1416 1418 1418 1418
1434 1429 1423 1417 1412 1406 1400 1396 1390 1382 1379 1378 1379 1382 1385 1391 1391 1397 1401 1407 1410 1410 1412 1414 1415 1415 1415 1416 1416 1414 1416 1406 1407 1411 1413 1421 1417 1410 1398 1395 1403 1403 1401 1406 1413 1417 1403
1432 1426 1420 1415 1410 1405 1399 1391 1386 1383 1374 1374 1374 1376 1378 1383 1390 1393 1399 1400 1406 1408 1411 1411 1411 1411 1410 1410 1412 1412 1409 1405 1406 1408 1413 1417 1408 1404 1394 1393 1396 1395 1394 1397 1396 1390 1398
1429 1423 1418 1414 1409 1402 1399 1395 1389 1380 1371 1371 1372 1371 1377 1380 1388 1394 1398 1398 1400 1403 1407 1406 1407 1405 1408 1405 1404 1403 1402 1402 1402 1406 1409 1410 1404 1400 1385 1376 1377 1383 1391 1384 1387 1390 1389
1426 1421 1416 1411 1407 1401 1395 1388 1383 1378 1376 1375 1368 1368 1371 1379 1386 1391 1389 1394 1394 1397 1400 1399 1401 1404 1402 1399 1399 1399 1401 1401 1398 1398 1404 1407 1404 1393 1372 1364 1368 1374 1372 1374 1378 1381 1384
1423 1419 1414 1410 1405 1401 1397 1393 1387 1383 1379 1376 1371 1372 1372 1378 1382 1382 1387 1390 1392 1394 1396 1395 1399 1400 1397 1395 1394 1393 1394 1394 1391 1389 1391 1395 1397 1392 1373 1373 1362 1357 1355 1362 1372 1381 1383
1420 1416 1411 1407 1404 1398 1392 1387 1382 1379 1375 1372 1369 1370 1370 1374 1379 1384 1386 1388 1391 1393 1394 1394 1394 1394 1394 1396 1393 1389 1392 1390 1384 1384 1386 1388 1386 1381 1377 1375 1359 1359 1363 1366 1374 1378 1376
1418 1413 1408 1403 1401 1398 1393 1388 1383 1378 1373 1367 1367 1370 1371 1370 1376 1376 1382 1385 1387 1389 1390 1390 1389 1391 1393 1394 1392 1388 1387 1386 1386 1379 1382 1385 1385 1382 1382 1383 1367 1359 1362 1363 1374 1372 1360
1415 1410 1406 1401 1398 1393 1390 1385 1381 1376 1371 1369 1366 1366 1369 1370 1373 1376 1379 1381 1384 1386 1388 1388 1388 1389 1389 1387 1388 1390 1386 1383 1386 1382 1375 1377 1376 1379 1378 1380 1375 1362 1362 1365 1380 1366 1355
1412 1407 1404 1399 1395 1392 1388 1385 1381 1377 1371 1366 1364 1367 1370 1372 1373 1375 1375 1377 1381 1383 1385 1387 1389 1384 1383 1381 1383 1383 1383 1383 1383 1379 1380 1380 1382 1383 1377 1384 1381 1361 1360 1364 1362 1358 1357
1410 1405 1401 1397 1392 1389 1386 1382 1379 1375 1371 1368 1367 1368 1369 1371 1373 1374 1374 1375 1377 1379 1380 1383 1382 1380 1378 1377 1380 1379 1377 1384 1382 1380 1377 1378 1373 1374 1375 1375 1363 1361 1359 1358 1358 1358 1357